| time (UTC) | temp F | wind direction | speed MPH | gust MPH | rain 1hr in | rain 24hr in | rain mn in | humidity % | barometer mb |
| 20260504060202 | 47 | 119 | 1.0 | 3.0 | 0.00 | 0.00 | 0.00 | 84 | 1012.6 |
| 20260504050630 | 45 | 102 | 2.0 | 3.0 | 0.00 | 0.00 | 0.00 | 85 | 1013.0 |
| 20260504050127 | 45 | 99 | 2.0 | 3.0 | 0.00 | 0.00 | 0.00 | 85 | 1012.9 |
| 20260504045624 | 44 | 110 | 3.0 | 3.0 | 0.00 | 0.00 | 0.00 | 85 | 1012.9 |
| 20260504045118 | 44 | 91 | 2.0 | 3.0 | 0.00 | 0.00 | 0.00 | 85 | 1012.9 |
| 20260504044617 | 44 | 117 | 1.0 | 2.0 | 0.00 | 0.00 | 0.00 | 85 | 1012.9 |
| 20260504044113 | 44 | 94 | 2.0 | 3.0 | 0.00 | 0.00 | 0.00 | 85 | 1013.0 |
| 20260504043610 | 44 | 111 | 2.0 | 3.0 | 0.00 | 0.00 | 0.00 | 85 | 1012.9 |
| 20260504043108 | 43 | 103 | 2.0 | 3.0 | 0.00 | 0.00 | 0.00 | 85 | 1013.1 |
| 20260504042605 | 43 | 115 | 2.0 | 3.0 | 0.00 | 0.00 | 0.00 | 85 | 1013.0 |
| 20260504042101 | 43 | 114 | 2.0 | 3.0 | 0.00 | 0.00 | 0.00 | 85 | 1012.8 |
| 20260504041557 | 43 | 102 | 2.0 | 3.0 | 0.00 | 0.00 | 0.00 | 85 | 1012.8 |
| 20260504041054 | 43 | 83 | 2.0 | 2.0 | 0.00 | 0.00 | 0.00 | 85 | 1012.8 |
| 20260504040551 | 43 | 106 | 1.0 | 2.0 | 0.00 | 0.00 | 0.00 | 84 | 1012.9 |
| 20260504040047 | 43 | 86 | 1.0 | 3.0 | 0.00 | 0.00 | 0.00 | 84 | 1012.8 |
| 20260504035544 | 44 | 111 | 2.0 | 3.0 | 0.00 | 0.00 | 0.00 | 84 | 1012.7 |
| 20260504035040 | 44 | 103 | 2.0 | 3.0 | 0.00 | 0.00 | 0.00 | 83 | 1012.7 |
| 20260504034539 | 44 | 105 | 2.0 | 2.0 | 0.00 | 0.00 | 0.00 | 83 | 1012.8 |
| 20260504034035 | 44 | 105 | 2.0 | 3.0 | 0.00 | 0.00 | 0.00 | 82 | 1012.8 |
| 20260504033533 | 44 | 107 | 2.0 | 3.0 | 0.00 | 0.00 | 0.00 | 82 | 1012.5 |
| 20260504033030 | 44 | 132 | 2.0 | 3.0 | 0.00 | 0.00 | 0.00 | 82 | 1012.7 |
| 20260504032527 | 44 | 109 | 2.0 | 3.0 | 0.00 | 0.00 | 0.00 | 82 | 1012.5 |
| 20260504032024 | 44 | 115 | 3.0 | 3.0 | 0.00 | 0.00 | 0.00 | 81 | 1012.6 |
| 20260504031521 | 44 | 97 | 2.0 | 3.0 | 0.00 | 0.00 | 0.00 | 81 | 1012.4 |
| 20260504031017 | 44 | 83 | 2.0 | 3.0 | 0.00 | 0.00 | 0.00 | 80 | 1012.6 |
| 20260504030515 | 44 | 107 | 2.0 | 3.0 | 0.00 | 0.00 | 0.00 | 80 | 1012.5 |
| 20260504030011 | 44 | 108 | 1.0 | 2.0 | 0.00 | 0.00 | 0.00 | 80 | 1012.5 |
| 20260504025508 | 44 | 109 | 2.0 | 3.0 | 0.00 | 0.00 | 0.00 | 80 | 1012.6 |
| 20260504025005 | 44 | 155 | 2.0 | 3.0 | 0.00 | 0.00 | 0.00 | 79 | 1012.6 |
| 20260504024502 | 44 | 101 | 2.0 | 3.0 | 0.00 | 0.00 | 0.00 | 79 | 1012.5 |
| 20260504023959 | 44 | 110 | 2.0 | 3.0 | 0.00 | 0.00 | 0.00 | 79 | 1012.4 |
| 20260504023455 | 44 | 94 | 2.0 | 3.0 | 0.00 | 0.00 | 0.00 | 78 | 1012.4 |
| 20260504022950 | 44 | 102 | 2.0 | 3.0 | 0.00 | 0.00 | 0.00 | 78 | 1012.4 |
| 20260504022447 | 45 | 121 | 1.0 | 3.0 | 0.00 | 0.00 | 0.00 | 77 | 1012.4 |
| 20260504021944 | 45 | 144 | 1.0 | 3.0 | 0.00 | 0.00 | 0.00 | 77 | 1012.3 |
| 20260504021441 | 45 | 107 | 2.0 | 2.0 | 0.00 | 0.00 | 0.00 | 77 | 1012.4 |
| 20260504020938 | 45 | 112 | 1.0 | 2.0 | 0.00 | 0.00 | 0.00 | 77 | 1012.4 |
| 20260504020435 | 45 | 121 | 2.0 | 2.0 | 0.00 | 0.00 | 0.00 | 76 | 1012.4 |
| 20260504015932 | 45 | 118 | 2.0 | 2.0 | 0.00 | 0.00 | 0.00 | 75 | 1012.2 |
| 20260504015427 | 45 | 107 | 1.0 | 2.0 | 0.00 | 0.00 | 0.00 | 75 | 1012.1 |
| 20260504014923 | 46 | 107 | 2.0 | 3.0 | 0.00 | 0.00 | 0.00 | 75 | 1012.3 |
| 20260504014420 | 46 | 109 | 2.0 | 2.0 | 0.00 | 0.00 | 0.00 | 74 | 1012.3 |
| 20260504013917 | 46 | 123 | 1.0 | 2.0 | 0.00 | 0.00 | 0.00 | 74 | 1012.4 |
| 20260504013415 | 46 | 106 | 2.0 | 2.0 | 0.00 | 0.00 | 0.00 | 73 | 1012.1 |
| 20260504012911 | 46 | 118 | 2.0 | 2.0 | 0.00 | 0.00 | 0.00 | 72 | 1012.3 |
| 20260504012409 | 47 | 121 | 2.0 | 2.0 | 0.00 | 0.00 | 0.00 | 72 | 1012.2 |
| 20260504011906 | 47 | 124 | 0.0 | 2.0 | 0.00 | 0.00 | 0.00 | 71 | 1012.1 |
| 20260504011403 | 47 | 125 | 2.0 | 3.0 | 0.00 | 0.00 | 0.00 | 70 | 1012.0 |
| 20260504010859 | 47 | 135 | 0.0 | 2.0 | 0.00 | 0.00 | 0.00 | 69 | 1012.1 |
| 20260504010354 | 48 | 100 | 2.0 | 2.0 | 0.00 | 0.00 | 0.00 | 68 | 1012.0 |
| 20260504005845 | 48 | 102 | 1.0 | 2.0 | 0.00 | 0.00 | 0.00 | 68 | 1012.1 |
| 20260504005342 | 48 | 112 | 1.0 | 2.0 | 0.00 | 0.00 | 0.00 | 66 | 1012.1 |
| 20260504004840 | 49 | 94 | 1.0 | 2.0 | 0.00 | 0.00 | 0.00 | 65 | 1011.9 |
| 20260504004337 | 50 | 130 | 2.0 | 2.0 | 0.00 | 0.00 | 0.00 | 64 | 1012.0 |
| 20260504003834 | 50 | 112 | 1.0 | 2.0 | 0.00 | 0.00 | 0.00 | 62 | 1011.8 |
| 20260504003331 | 50 | 109 | 0.0 | 2.0 | 0.00 | 0.00 | 0.00 | 62 | 1011.7 |
| 20260504002827 | 51 | 97 | 0.0 | 1.0 | 0.00 | 0.00 | 0.00 | 59 | 1011.7 |
| 20260504002324 | 51 | 135 | 0.0 | 1.0 | 0.00 | 0.00 | 0.00 | 58 | 1011.7 |
| 20260504001822 | 51 | 130 | 0.0 | 1.0 | 0.00 | 0.00 | 0.00 | 57 | 1011.7 |
| 20260504001319 | 52 | 135 | 1.0 | 1.0 | 0.00 | 0.00 | 0.00 | 55 | 1011.7 |
| 20260504000815 | 53 | 135 | 0.0 | 1.0 | 0.00 | 0.00 | 0.00 | 54 | 1011.6 |
| 20260504000313 | 53 | 126 | 1.0 | 1.0 | 0.00 | 0.00 | 0.00 | 53 | 1011.7 |
| 20260503235810 | 54 | 136 | 0.0 | 1.0 | 0.00 | 0.00 | 0.00 | 54 | 1011.5 |
| 20260503235308 | 54 | 114 | 2.0 | 2.0 | 0.00 | 0.00 | 0.00 | 52 | 1011.4 |
| 20260503234805 | 55 | 103 | 1.0 | 2.0 | 0.00 | 0.00 | 0.00 | 51 | 1011.4 |
| 20260503234303 | 55 | 114 | 0.0 | 1.0 | 0.00 | 0.00 | 0.00 | 50 | 1011.2 |
| 20260503233800 | 56 | 106 | 1.0 | 1.0 | 0.00 | 0.00 | 0.00 | 49 | 1011.3 |
| 20260503233255 | 56 | 129 | 0.0 | 0.0 | 0.00 | 0.00 | 0.00 | 47 | 1011.1 |
| 20260503232753 | 57 | 101 | 0.0 | 2.0 | 0.00 | 0.00 | 0.00 | 47 | 1011.2 |
| 20260503232250 | 58 | 116 | 1.0 | 2.0 | 0.00 | 0.00 | 0.00 | 42 | 1011.1 |
| 20260503231748 | 59 | 122 | 0.0 | 2.0 | 0.00 | 0.00 | 0.00 | 37 | 1011.0 |
| 20260503231245 | 59 | 108 | 3.0 | 3.0 | 0.00 | 0.00 | 0.00 | 37 | 1011.2 |
| 20260503230740 | 59 | 119 | 0.0 | 1.0 | 0.00 | 0.00 | 0.00 | 38 | 1011.1 |
| 20260503230237 | 60 | 123 | 0.0 | 2.0 | 0.00 | 0.00 | 0.00 | 36 | 1011.2 |
| 20260503225730 | 60 | 136 | 2.0 | 2.0 | 0.00 | 0.00 | 0.00 | 36 | 1011.2 |
| 20260503225229 | 60 | 113 | 4.0 | 4.0 | 0.00 | 0.00 | 0.00 | 34 | 1011.3 |
| 20260503224727 | 60 | 144 | 2.0 | 2.0 | 0.00 | 0.00 | 0.00 | 36 | 1011.3 |
| 20260503224225 | 60 | 1 | 2.0 | 5.0 | 0.00 | 0.00 | 0.00 | 33 | 1011.2 |
| 20260503223722 | 60 | 137 | 2.0 | 3.0 | 0.00 | 0.00 | 0.00 | 34 | 1011.3 |
| 20260503223220 | 60 | 154 | 1.0 | 3.0 | 0.00 | 0.00 | 0.00 | 34 | 1011.3 |
| 20260503222716 | 60 | 116 | 2.0 | 3.0 | 0.00 | 0.00 | 0.00 | 35 | 1011.0 |
| 20260503222214 | 60 | 306 | 2.0 | 3.0 | 0.00 | 0.00 | 0.00 | 34 | 1011.2 |
| 20260503221712 | 60 | 186 | 1.0 | 8.0 | 0.00 | 0.00 | 0.00 | 33 | 1011.4 |
| 20260503221209 | 60 | 277 | 1.0 | 6.0 | 0.00 | 0.00 | 0.00 | 33 | 1011.4 |
| 20260503220706 | 61 | 88 | 2.0 | 6.0 | 0.00 | 0.00 | 0.00 | 32 | 1011.3 |
| 20260503220202 | 61 | 229 | 0.0 | 5.0 | 0.00 | 0.00 | 0.00 | 33 | 1011.2 |
| 20260503215659 | 61 | 137 | 3.0 | 5.0 | 0.00 | 0.00 | 0.00 | 32 | 1011.3 |
| 20260503215156 | 60 | 213 | 1.0 | 4.0 | 0.00 | 0.00 | 0.00 | 33 | 1011.4 |
| 20260503214655 | 61 | 201 | 3.0 | 5.0 | 0.00 | 0.00 | 0.00 | 32 | 1011.3 |
| 20260503214149 | 61 | 202 | 2.0 | 6.0 | 0.00 | 0.00 | 0.00 | 34 | 1011.2 |
| 20260503213644 | 60 | 235 | 2.0 | 4.0 | 0.00 | 0.00 | 0.00 | 33 | 1011.2 |
| 20260503213140 | 60 | 160 | 2.0 | 6.0 | 0.00 | 0.00 | 0.00 | 32 | 1011.3 |
| 20260503212638 | 61 | 316 | 4.0 | 4.0 | 0.00 | 0.00 | 0.00 | 32 | 1011.4 |
| 20260503212135 | 61 | 240 | 0.0 | 4.0 | 0.00 | 0.00 | 0.00 | 33 | 1011.2 |
| 20260503211633 | 61 | 184 | 2.0 | 7.0 | 0.00 | 0.00 | 0.00 | 32 | 1011.3 |
| 20260503211127 | 61 | 134 | 0.0 | 4.0 | 0.00 | 0.00 | 0.00 | 33 | 1011.1 |
| 20260503210624 | 62 | 257 | 2.0 | 4.0 | 0.00 | 0.00 | 0.00 | 32 | 1011.1 |
| 20260503210121 | 61 | 243 | 0.0 | 3.0 | 0.00 | 0.00 | 0.00 | 33 | 1010.9 |
| 20260503205617 | 60 | 220 | 1.0 | 7.0 | 0.00 | 0.00 | 0.00 | 32 | 1011.1 |
| 20260503205113 | 60 | 136 | 3.0 | 5.0 | 0.00 | 0.00 | 0.00 | 32 | 1011.1 |
| 20260503204610 | 61 | 235 | 7.0 | 7.0 | 0.00 | 0.00 | 0.00 | 31 | 1011.2 |
| 20260503204108 | 61 | 226 | 1.0 | 5.0 | 0.00 | 0.00 | 0.00 | 33 | 1010.9 |
| 20260503203604 | 61 | 244 | 1.0 | 5.0 | 0.00 | 0.00 | 0.00 | 33 | 1011.3 |
| 20260503203102 | 62 | 192 | 2.0 | 4.0 | 0.00 | 0.00 | 0.00 | 31 | 1011.3 |
| 20260503202559 | 61 | 138 | 5.0 | 5.0 | 0.00 | 0.00 | 0.00 | 33 | 1011.2 |
| 20260503202057 | 61 | 45 | 5.0 | 5.0 | 0.00 | 0.00 | 0.00 | 32 | 1011.2 |
| 20260503201555 | 61 | 137 | 5.0 | 5.0 | 0.00 | 0.00 | 0.00 | 34 | 1011.3 |
| 20260503201051 | 60 | 149 | 0.0 | 6.0 | 0.00 | 0.00 | 0.00 | 33 | 1011.4 |
| 20260503200547 | 60 | 149 | 3.0 | 4.0 | 0.00 | 0.00 | 0.00 | 32 | 1011.7 |
| 20260503200044 | 60 | 182 | 4.0 | 5.0 | 0.00 | 0.00 | 0.00 | 33 | 1011.6 |
| 20260503195541 | 60 | 213 | 3.0 | 5.0 | 0.00 | 0.00 | 0.00 | 32 | 1011.6 |
| 20260503195038 | 61 | 180 | 3.0 | 5.0 | 0.00 | 0.00 | 0.00 | 32 | 1011.7 |
| 20260503194535 | 60 | 220 | 2.0 | 6.0 | 0.00 | 0.00 | 0.00 | 32 | 1011.8 |
| 20260503194036 | 61 | 297 | 2.0 | 3.0 | 0.00 | 0.00 | 0.00 | 36 | 1011.8 |
| 20260503193533 | 60 | 129 | 2.0 | 5.0 | 0.00 | 0.00 | 0.00 | 35 | 1011.9 |
| 20260503193028 | 60 | 329 | 1.0 | 4.0 | 0.00 | 0.00 | 0.00 | 33 | 1012.1 |
| 20260503192524 | 60 | 157 | 2.0 | 5.0 | 0.00 | 0.00 | 0.00 | 31 | 1012.2 |
| 20260503192020 | 61 | 272 | 5.0 | 7.0 | 0.00 | 0.00 | 0.00 | 31 | 1012.2 |
| 20260503191517 | 60 | 226 | 3.0 | 5.0 | 0.00 | 0.00 | 0.00 | 32 | 1012.3 |
| 20260503191014 | 59 | 111 | 6.0 | 8.0 | 0.00 | 0.00 | 0.00 | 33 | 1012.2 |
| 20260503190510 | 59 | 296 | 5.0 | 6.0 | 0.00 | 0.00 | 0.00 | 34 | 1012.5 |
| 20260503190008 | 59 | 206 | 2.0 | 4.0 | 0.00 | 0.00 | 0.00 | 33 | 1012.5 |
| 20260503185503 | 60 | 175 | 3.0 | 6.0 | 0.00 | 0.00 | 0.00 | 32 | 1012.3 |
| 20260503184958 | 59 | 133 | 3.0 | 8.0 | 0.00 | 0.00 | 0.00 | 33 | 1012.5 |
| 20260503184455 | 58 | 95 | 2.0 | 5.0 | 0.00 | 0.00 | 0.00 | 35 | 1012.4 |
| 20260503183951 | 59 | 194 | 4.0 | 5.0 | 0.00 | 0.00 | 0.00 | 33 | 1012.5 |
| 20260503183448 | 59 | 217 | 4.0 | 6.0 | 0.00 | 0.00 | 0.00 | 33 | 1012.6 |
| 20260503182945 | 59 | 237 | 2.0 | 4.0 | 0.00 | 0.00 | 0.00 | 36 | 1012.4 |
| 20260503182444 | 59 | 258 | 3.0 | 4.0 | 0.00 | 0.00 | 0.00 | 34 | 1012.6 |
| 20260503181941 | 59 | 108 | 1.0 | 5.0 | 0.00 | 0.00 | 0.00 | 35 | 1012.4 |
| 20260503181438 | 57 | 111 | 3.0 | 6.0 | 0.00 | 0.00 | 0.00 | 35 | 1012.4 |
| 20260503180934 | 58 | 246 | 3.0 | 6.0 | 0.00 | 0.00 | 0.00 | 36 | 1012.5 |
| 20260503180432 | 58 | 301 | 2.0 | 3.0 | 0.00 | 0.00 | 0.00 | 35 | 1012.6 |
| 20260503175929 | 57 | 190 | 5.0 | 6.0 | 0.00 | 0.00 | 0.00 | 35 | 1012.7 |
| 20260503175427 | 58 | 331 | 2.0 | 6.0 | 0.00 | 0.00 | 0.00 | 33 | 1012.7 |
| 20260503174922 | 57 | 167 | 3.0 | 4.0 | 0.00 | 0.00 | 0.00 | 36 | 1012.6 |
| 20260503174421 | 57 | 180 | 4.0 | 6.0 | 0.00 | 0.00 | 0.00 | 35 | 1012.7 |
| 20260503173921 | 58 | 209 | 2.0 | 5.0 | 0.00 | 0.00 | 0.00 | 35 | 1012.5 |
| 20260503173417 | 57 | 219 | 4.0 | 6.0 | 0.00 | 0.00 | 0.00 | 35 | 1012.7 |
| 20260503172914 | 57 | 236 | 3.0 | 9.0 | 0.00 | 0.00 | 0.00 | 36 | 1012.8 |
| 20260503172411 | 57 | 253 | 2.0 | 7.0 | 0.00 | 0.00 | 0.00 | 34 | 1012.9 |
| 20260503171907 | 56 | 183 | 2.0 | 3.0 | 0.00 | 0.00 | 0.00 | 35 | 1013.2 |
| 20260503171404 | 57 | 262 | 6.0 | 6.0 | 0.00 | 0.00 | 0.00 | 36 | 1012.9 |
| 20260503170902 | 57 | 131 | 6.0 | 6.0 | 0.00 | 0.00 | 0.00 | 36 | 1012.9 |
| 20260503170358 | 57 | 228 | 7.0 | 7.0 | 0.00 | 0.00 | 0.00 | 37 | 1013.0 |
| 20260503150750 | 53 | 208 | 2.0 | 5.0 | 0.00 | 0.00 | 0.00 | 40 | 1013.6 |
| 20260503150246 | 52 | 191 | 3.0 | 4.0 | 0.00 | 0.00 | 0.00 | 39 | 1013.3 |
| 20260503140211 | 48 | 248 | 4.0 | 7.0 | 0.00 | 0.00 | 0.00 | 44 | 1013.8 |
| 20260503131140 | 49 | 213 | 4.0 | 6.0 | 0.00 | 0.00 | 0.00 | 48 | 1013.8 |
| 20260503130638 | 48 | 105 | 1.0 | 4.0 | 0.00 | 0.00 | 0.00 | 50 | 1013.7 |
| 20260503130135 | 48 | 53 | 0.0 | 5.0 | 0.00 | 0.00 | 0.00 | 49 | 1013.7 |
| 20260503110528 | 43 | 142 | 2.0 | 3.0 | 0.00 | 0.00 | 0.00 | 71 | 1012.4 |
| 20260503090415 | 45 | 176 | 2.0 | 3.0 | 0.00 | 0.00 | 0.00 | 64 | 1010.7 |
| 20260503081341 | 46 | 155 | 1.0 | 3.0 | 0.00 | 0.00 | 0.00 | 61 | 1010.3 |
| 20260503080838 | 47 | 79 | 1.0 | 3.0 | 0.00 | 0.00 | 0.00 | 60 | 1010.4 |
| 20260503080335 | 47 | 213 | 3.0 | 3.0 | 0.00 | 0.00 | 0.00 | 60 | 1010.2 |
| 20260503072805 | 48 | 139 | 1.0 | 4.0 | 0.00 | 0.00 | 0.00 | 59 | 1009.9 |
| 20260503072305 | 48 | 204 | 3.0 | 3.0 | 0.00 | 0.00 | 0.00 | 59 | 1009.7 |
| 20260503071758 | 48 | 212 | 1.0 | 2.0 | 0.00 | 0.00 | 0.00 | 59 | 1010.0 |
| 20260503071256 | 48 | 229 | 1.0 | 2.0 | 0.00 | 0.00 | 0.00 | 58 | 1009.7 |
| 20260503070752 | 48 | 292 | 2.0 | 4.0 | 0.00 | 0.00 | 0.00 | 57 | 1009.7 |
| 20260503070250 | 49 | 256 | 0.0 | 3.0 | 0.00 | 0.00 | 0.00 | 56 | 1009.7 |